This demonstration page uses our WeatherBlox Daily Observations layout. Learn more.

40.92945, -100.16068

Hourly Observations for August 16, 2019

Temp ( °F °C ) Dew Point ( °F °C ) Humidity (%) Winds ( mph kmh ) Pressure ( in mb ) Visibility ( mi km ) Precip ( " mm )
12:15 am 00:15 Clear 63 17 63 17 100 100 Calm 29.91 1013 7 11.265408 0 0
12:35 am 00:35 Clear 62 16.5 62 16.5 100 100 Calm 29.91 1013 10 16.09344 0 0
12:55 am 00:55 Clear 61 16.2 61 16.2 100 100 NNE 5 7 29.91 1013 7 11.265408 0 0
1:15 am 01:15 Clear 61 16.3 61 16.3 100 100 NE 3 6 29.91 1013 7 11.265408 0 0
1:35 am 01:35 Clear 61 16.2 61 16.2 100 100 ENE 3 6 29.91 1013 10 16.09344 0 0
1:55 am 01:55 Clear 61 16 61 16 100 100 Calm 29.94 1014 7 11.265408 0 0
2:15 am 02:15 Clear 61 16 61 16 100 100 Calm 29.94 1014 7 11.265408 0 0
2:35 am 02:35 Clear with Mist and Fog 60 15.5 60 15.5 100 100 Calm 29.94 1014 4 6.437376 0 0
2:55 am 02:55 Clear with Mist and Fog 60 15.7 60 15.7 100 100 Calm 29.94 1014 5 8.04672 0 0
3:15 am 03:15 Mostly Cloudy 61 16.2 61 16.2 100 100 S 3 6 29.91 1013 7 11.265408 0 0
3:35 am 03:35 Cloudy with Mist and Fog 62 16.7 62 16.7 100 100 Calm 29.91 1013 1.5 2.414016 0 0
3:55 am 03:55 Cloudy with Fog 63 17.2 63 17.2 100 100 Calm 29.91 1013 0.25 0.402336 0 0
4:15 am 04:15 Cloudy with Fog 64 17.9 64 17.9 100 100 Calm 29.91 1013 0.25 0.402336 0 0
4:35 am 04:35 Cloudy with Light Rain 64 17.8 64 17.8 100 100 Calm 29.91 1013 0.25 0.402336 0 0
4:55 am 04:55 Cloudy with Light Rain 64 17.6 64 17.6 100 100 Calm 29.94 1014 0.25 0.402336 0 0
5:15 am 05:15 Cloudy with Drizzle 64 17.7 64 17.7 100 100 NE 6 9 29.94 1014 0.5 0.804672 0 0
5:35 am 05:35 Cloudy with Mist and Fog 64 17.8 64 17.8 100 100 N 5 7 29.97 1015 0.75 1.207008 0 0
5:55 am 05:55 Cloudy with Mist and Fog 64 17.8 64 17.8 100 100 NNW 16 26 30 1016 2.5 4.02336 0 0
6:15 am 06:15 Cloudy with Light Rain 64 17.8 64 17.8 100 100 N 14 22 30 1016 4 6.437376 0.06 1.524
6:35 am 06:35 Mostly Cloudy with Light Rain 64 17.9 64 17.9 100 100 NNE 10 17 29.97 1015 7 11.265408 0.06 1.524
6:55 am 06:55 Mostly Cloudy with Light Rain 64 17.8 64 17.8 100 100 E 14 22 29.94 1014 7 11.265408 0.06 1.524
7:15 am 07:15 Sunny 64 17.8 64 17.6 99 99 SE 9 15 29.91 1013 10 16.09344 0 0
7:35 am 07:35 Sunny 64 17.7 64 17.5 99 99 SE 9 15 29.91 1013 10 16.09344 0 0
7:55 am 07:55 Sunny 64 17.6 64 17.5 99 99 ESE 10 17 29.88 1012 10 16.09344 0 0
8:15 am 08:15 Sunny 64 17.5 62 16.7 95 95 ESE 12 19 29.85 1011 10 16.09344 0 0
8:35 am 08:35 Sunny 65 18.1 62 16.8 92 92 ESE 5 7 29.88 1012 10 16.09344 0 0
8:55 am 08:55 Partly Cloudy 64 17.8 62 16.8 94 94 ENE 5 7 29.91 1013 10 16.09344 0 0
9:15 am 09:15 Partly Cloudy 65 18.5 63 17 91 91 Calm 29.88 1012 10 16.09344 0 0
9:35 am 09:35 Sunny 66 18.9 61 16.3 85 85 N 3 6 29.91 1013 10 16.09344 0 0
9:55 am 09:55 Partly Cloudy 69 20.5 62 16.7 79 79 NNW 3 6 29.88 1012 10 16.09344 0.01 0.254
10:15 am 10:15 Sunny 70 21.3 61 15.9 71 71 Calm 29.88 1012 10 16.09344 0 0
10:35 am 10:35 Sunny 71 21.8 63 17 74 74 SSE 5 7 29.85 1011 10 16.09344 0 0
10:55 am 10:55 Sunny 73 22.7 63 17.1 71 71 S 3 6 29.85 1011 10 16.09344 0 0
11:15 am 11:15 Sunny 74 23.2 62 16.6 67 67 Calm 29.85 1011 10 16.09344 0 0
11:35 am 11:35 Sunny 74 23.5 62 16.7 66 66 Calm 29.85 1011 10 16.09344 0 0
11:55 am 11:55 Sunny 75 24 63 17.1 65 65 Calm 29.85 1011 10 16.09344 0 0
12:15 pm 12:15 Sunny 75 23.9 62 16.9 65 65 Calm 29.85 1011 10 16.09344 0 0
12:35 pm 12:35 Sunny 75 24.1 63 17.2 65 65 Calm 29.85 1011 10 16.09344 0 0
12:55 pm 12:55 Sunny 77 24.8 64 17.7 65 65 SSE 3 6 29.85 1011 10 16.09344 0 0
1:15 pm 13:15 Sunny 78 25.4 64 17.7 62 62 SSE 7 11 29.83 1010 10 16.09344 0 0
1:35 pm 13:35 Sunny 78 25.4 62 16.9 59 59 S 7 11 29.83 1010 10 16.09344 0 0
1:55 pm 13:55 Sunny 78 25.7 63 17.3 60 60 SSE 3 6 29.83 1010 10 16.09344 0 0
2:15 pm 14:15 Sunny 79 25.9 64 17.8 61 61 SE 6 9 29.83 1010 10 16.09344 0 0
2:35 pm 14:35 Sunny 79 26.2 65 18.3 62 62 SE 9 15 29.83 1010 10 16.09344 0 0
2:55 pm 14:55 Sunny 80 26.5 65 18.2 60 60 SE 8 13 29.77 1008 10 16.09344 0 0
3:15 pm 15:15 Sunny 80 26.6 66 18.8 62 62 ESE 8 13 29.77 1008 10 16.09344 0 0
3:35 pm 15:35 Sunny 80 26.7 65 18.5 61 61 SE 10 17 29.77 1008 10 16.09344 0 0
3:55 pm 15:55 Sunny 80 26.9 65 18.3 59 59 ESE 8 13 29.77 1008 10 16.09344 0 0
4:15 pm 16:15 Sunny 81 27 65 18.6 60 60 ESE 12 19 29.77 1008 10 16.09344 0 0
4:35 pm 16:35 Sunny 80 26.9 66 18.7 61 61 SE 8 13 29.74 1007 10 16.09344 0 0
4:55 pm 16:55 Sunny 81 27 65 18.4 59 59 SE 8 13 29.74 1007 10 16.09344 0 0
5:15 pm 17:15 Sunny 81 27.1 65 18.4 59 59 ESE 10 17 29.74 1007 10 16.09344 0 0
5:35 pm 17:35 Sunny 80 26.8 66 18.9 62 62 E 9 15 29.74 1007 10 16.09344 0 0
5:55 pm 17:55 Sunny 80 26.7 65 18.4 60 60 ESE 10 17 29.74 1007 10 16.09344 0 0
6:15 pm 18:15 Sunny 80 26.6 64 17.7 58 58 ESE 12 19 29.74 1007 10 16.09344 0 0
6:35 pm 18:35 Sunny 80 26.5 65 18.2 60 60 SE 10 17 29.71 1006 10 16.09344 0 0
6:55 pm 18:55 Sunny 78 25.8 65 18.2 63 63 ESE 12 19 29.74 1007 10 16.09344 0 0
7:15 pm 19:15 Sunny 77 25.1 66 19.1 69 69 ESE 10 17 29.77 1008 10 16.09344 0 0
7:35 pm 19:35 Sunny 76 24.5 66 19 72 72 SE 5 7 29.77 1008 10 16.09344 0 0
7:55 pm 19:55 Sunny 74 23.4 68 20.2 82 82 E 7 11 29.77 1008 10 16.09344 0 0
8:15 pm 20:15 Sunny 74 23.1 68 20.1 83 83 E 7 11 29.77 1008 10 16.09344 0 0
8:35 pm 20:35 Sunny 73 22.6 68 19.8 84 84 E 8 13 29.77 1008 10 16.09344 0 0
8:55 pm 20:55 Partly Cloudy 73 22.5 67 19.6 84 84 SE 6 9 29.8 1009 10 16.09344 0 0
9:15 pm 21:15 Partly Cloudy 72 22.4 67 19.6 84 84 E 7 11 29.83 1010 10 16.09344 0 0
9:35 pm 21:35 Clear 72 22.1 67 19.6 86 86 ESE 7 11 29.83 1010 10 16.09344 0 0
9:55 pm 21:55 Clear 70 21.1 67 19.6 91 91 E 7 11 29.83 1010 10 16.09344 0 0
10:15 pm 22:15 Clear 69 20.8 67 19.6 93 93 E 8 13 29.83 1010 10 16.09344 0 0
10:35 pm 22:35 Clear 71 21.5 67 19.7 90 90 E 10 17 29.83 1010 10 16.09344 0 0
10:55 pm 22:55 Clear 71 21.4 67 19.6 90 90 Calm 29.85 1011 10 16.09344 0 0
11:15 pm 23:15 Mostly Cloudy with Light Rain 70 20.9 68 19.8 93 93 N 6 9 29.88 1012 10 16.09344 0 0
11:35 pm 23:35 Cloudy with Rain 69 20.7 67 19.7 94 94 Calm 29.91 1013 10 16.09344 0 0
11:55 pm 23:55 Partly Cloudy 69 20.5 67 19.7 95 95 NE 3 6 29.88 1012 10 16.09344 0 0

Powered by AerisWeather